Voltar ao catálogo

KOMPASS

AtivoCiênciaSSO
NORAD 27002·PAYLOAD·🇷🇺 Russia

Lançado Dec 10, 2001 de Baikonur Cosmodrome

Loading…

Próximas Passagens (próximas 24 horas)

TLE

AtualizadoSource: Space-Track

Época: Sep 14, 2026, 11:35 UTC

1 27002U 01056B   26257.48280751 -.00000018  00000-0  32476-4 0  9996
2 27002  99.8029  73.9417 0018635 265.5055 118.5497 13.70649096238476

Acompanhe KOMPASS em tempo real com AllMySat

Download on the App Store